TimeCDT,TemperatureF,Dew PointF,Humidity,Sea Level PressureIn,VisibilityMPH,Wind Direction,Wind SpeedMPH,Gust SpeedMPH,PrecipitationIn,Events,Conditions,WindDirDegrees,DateUTC
12:15 AM,60.8,59.0,94,30.00,7.0,WNW,9.2,-,0.01,,Overcast,290,2013-04-28 05:15:00
12:35 AM,59.0,57.2,94,30.00,7.0,WNW,5.8,-,0.01,Thunderstorm,Overcast,290,2013-04-28 05:35:00
12:55 AM,59.0,57.2,94,29.99,5.0,NW,5.8,-,0.01,,Overcast,310,2013-04-28 05:55:00
1:15 AM,59.0,57.2,94,29.99,10.0,Calm,Calm,-,N/A,,Overcast,0,2013-04-28 06:15:00
1:35 AM,59.0,55.4,88,29.98,10.0,NW,4.6,-,N/A,,Overcast,320,2013-04-28 06:35:00
1:55 AM,59.0,55.4,88,29.98,10.0,NW,5.8,-,N/A,,Overcast,320,2013-04-28 06:55:00
2:15 AM,59.0,57.2,94,29.98,10.0,WNW,4.6,-,N/A,,Overcast,290,2013-04-28 07:15:00
2:35 AM,59.0,55.4,88,29.98,7.0,WNW,4.6,-,N/A,,Overcast,300,2013-04-28 07:35:00
2:55 AM,59.0,55.4,88,29.98,10.0,WNW,5.8,-,N/A,,Overcast,300,2013-04-28 07:55:00
3:15 AM,59.0,55.4,88,29.98,10.0,NW,4.6,-,N/A,,Overcast,310,2013-04-28 08:15:00
3:35 AM,59.0,55.4,88,29.98,10.0,WNW,4.6,-,N/A,,Overcast,290,2013-04-28 08:35:00
3:55 AM,57.2,55.4,94,29.97,10.0,WNW,4.6,-,N/A,,Overcast,290,2013-04-28 08:55:00
4:15 AM,57.2,53.6,88,29.98,10.0,West,3.5,-,N/A,,Overcast,280,2013-04-28 09:15:00
4:35 AM,57.2,53.6,88,29.98,10.0,Calm,Calm,-,N/A,,Overcast,0,2013-04-28 09:35:00
4:55 AM,57.2,53.6,88,29.98,10.0,WNW,4.6,-,N/A,,Overcast,290,2013-04-28 09:55:00
5:15 AM,57.2,53.6,88,29.98,10.0,West,3.5,-,N/A,,Overcast,280,2013-04-28 10:15:00
5:35 AM,55.4,53.6,94,29.98,10.0,Calm,Calm,-,N/A,,Mostly Cloudy,0,2013-04-28 10:35:00
5:55 AM,55.4,53.6,94,29.98,10.0,NNE,3.5,-,N/A,,Mostly Cloudy,30,2013-04-28 10:55:00
6:15 AM,55.4,53.6,94,29.98,10.0,Calm,Calm,-,N/A,,Overcast,0,2013-04-28 11:15:00
6:35 AM,55.4,55.4,100,29.98,10.0,Calm,Calm,-,N/A,,Overcast,0,2013-04-28 11:35:00
6:55 AM,55.4,55.4,100,29.99,10.0,Calm,Calm,-,N/A,,Overcast,0,2013-04-28 11:55:00
7:15 AM,57.2,55.4,94,29.99,10.0,Calm,Calm,-,N/A,Thunderstorm,Overcast,0,2013-04-28 12:15:00
7:35 AM,59.0,55.4,88,29.99,10.0,NW,4.6,-,N/A,,Mostly Cloudy,320,2013-04-28 12:35:00
7:55 AM,59.0,55.4,88,30.00,10.0,NW,3.5,-,N/A,,Scattered Clouds,320,2013-04-28 12:55:00
8:15 AM,59.0,55.4,88,30.00,10.0,NW,5.8,-,N/A,,Scattered Clouds,320,2013-04-28 13:15:00
8:35 AM,60.8,55.4,82,30.01,10.0,WNW,5.8,-,N/A,,Mostly Cloudy,300,2013-04-28 13:35:00
8:55 AM,60.8,55.4,82,30.02,10.0,WNW,3.5,-,N/A,,Overcast,290,2013-04-28 13:55:00
9:15 AM,60.8,55.4,82,30.01,10.0,Calm,Calm,-,N/A,,Overcast,0,2013-04-28 14:15:00
9:35 AM,60.8,55.4,82,30.00,10.0,Calm,Calm,-,N/A,,Overcast,0,2013-04-28 14:35:00
9:55 AM,60.8,55.4,82,30.01,10.0,NW,3.5,-,N/A,,Overcast,310,2013-04-28 14:55:00
10:15 AM,62.6,55.4,77,30.00,10.0,WNW,8.1,-,N/A,,Overcast,300,2013-04-28 15:15:00
10:35 AM,62.6,55.4,77,30.00,10.0,WNW,6.9,-,N/A,,Overcast,300,2013-04-28 15:35:00
10:55 AM,62.6,55.4,77,30.00,10.0,NW,8.1,-,N/A,,Overcast,310,2013-04-28 15:55:00
11:15 AM,62.6,55.4,77,30.00,10.0,WNW,5.8,-,N/A,,Overcast,290,2013-04-28 16:15:00
11:35 AM,62.6,55.4,77,30.00,10.0,WNW,5.8,-,N/A,,Overcast,300,2013-04-28 16:35:00
11:55 AM,62.6,55.4,77,30.00,10.0,WNW,6.9,-,N/A,,Overcast,300,2013-04-28 16:55:00
12:15 PM,62.6,55.4,77,30.00,10.0,NW,6.9,-,N/A,,Mostly Cloudy,310,2013-04-28 17:15:00
12:35 PM,62.6,55.4,77,30.00,10.0,NNW,8.1,-,N/A,,Overcast,340,2013-04-28 17:35:00
12:55 PM,64.4,59.0,83,30.00,10.0,NNW,8.1,-,N/A,,Overcast,340,2013-04-28 17:55:00
1:15 PM,64.4,57.2,77,29.99,10.0,NNW,5.8,-,N/A,,Overcast,340,2013-04-28 18:15:00
1:35 PM,64.4,55.4,73,30.00,10.0,NNW,8.1,-,N/A,,Overcast,340,2013-04-28 18:35:00
1:55 PM,62.6,55.4,77,30.00,10.0,NNW,5.8,-,N/A,,Overcast,340,2013-04-28 18:55:00
2:15 PM,64.4,57.2,77,30.00,10.0,North,5.8,-,N/A,,Overcast,350,2013-04-28 19:15:00
2:35 PM,62.6,55.4,77,29.99,10.0,NW,5.8,-,N/A,,Overcast,310,2013-04-28 19:35:00
2:55 PM,64.4,55.4,73,29.99,10.0,North,4.6,-,N/A,,Overcast,350,2013-04-28 19:55:00
3:15 PM,64.4,55.4,73,29.98,10.0,WNW,6.9,-,N/A,,Mostly Cloudy,300,2013-04-28 20:15:00
3:35 PM,64.4,55.4,73,29.98,10.0,Calm,Calm,-,N/A,,Scattered Clouds,0,2013-04-28 20:35:00
3:55 PM,64.4,55.4,73,29.98,10.0,NNE,6.9,-,N/A,,Mostly Cloudy,30,2013-04-28 20:55:00
4:15 PM,66.2,55.4,68,29.98,10.0,North,4.6,-,N/A,,Scattered Clouds,350,2013-04-28 21:15:00
4:35 PM,66.2,55.4,68,29.98,10.0,North,5.8,-,N/A,,Clear,360,2013-04-28 21:35:00
4:55 PM,66.2,53.6,64,29.98,10.0,NNE,3.5,-,N/A,,Clear,20,2013-04-28 21:55:00
5:15 PM,64.4,53.6,68,29.98,10.0,Calm,Calm,-,N/A,,Clear,0,2013-04-28 22:15:00
5:35 PM,64.4,53.6,68,29.97,10.0,Calm,Calm,-,N/A,,Scattered Clouds,0,2013-04-28 22:35:00
5:55 PM,64.4,55.4,73,29.97,10.0,North,3.5,-,N/A,,Mostly Cloudy,350,2013-04-28 22:55:00
6:15 PM,64.4,55.4,73,29.97,10.0,NNE,3.5,-,N/A,,Scattered Clouds,20,2013-04-28 23:15:00
6:35 PM,62.6,53.6,72,29.97,10.0,NNW,4.6,-,N/A,,Clear,340,2013-04-28 23:35:00
6:55 PM,62.6,53.6,72,29.96,10.0,North,3.5,-,N/A,,Scattered Clouds,350,2013-04-28 23:55:00
7:15 PM,62.6,55.4,77,29.96,10.0,NNW,5.8,-,N/A,,Clear,340,2013-04-29 00:15:00
7:35 PM,60.8,53.6,77,29.96,10.0,North,8.1,-,N/A,,Clear,350,2013-04-29 00:35:00
7:55 PM,59.0,53.6,82,29.96,10.0,North,5.8,-,N/A,,Clear,350,2013-04-29 00:55:00
8:15 PM,59.0,53.6,82,29.97,10.0,North,4.6,-,N/A,,Clear,350,2013-04-29 01:15:00
8:35 PM,57.2,53.6,88,29.97,10.0,North,5.8,-,N/A,,Clear,350,2013-04-29 01:35:00
8:55 PM,55.4,53.6,94,29.97,10.0,North,3.5,-,N/A,,Clear,360,2013-04-29 01:55:00
9:15 PM,55.4,53.6,94,29.98,10.0,North,4.6,-,N/A,,Clear,360,2013-04-29 02:15:00
9:55 PM,55.4,51.8,88,29.98,10.0,Calm,Calm,-,N/A,,Clear,0,2013-04-29 02:55:00
10:15 PM,53.6,51.8,94,29.99,10.0,Calm,Calm,-,N/A,,Clear,0,2013-04-29 03:15:00
10:35 PM,53.6,53.6,100,29.99,10.0,Calm,Calm,-,N/A,,Clear,0,2013-04-29 03:35:00
10:55 PM,55.4,53.6,94,29.98,10.0,Calm,Calm,-,N/A,,Clear,0,2013-04-29 03:55:00
11:15 PM,53.6,51.8,94,29.98,10.0,Calm,Calm,-,N/A,,Clear,0,2013-04-29 04:15:00
11:35 PM,53.6,51.8,94,29.98,1.0,Calm,Calm,-,N/A,,Mist,0,2013-04-29 04:35:00
11:55 PM,53.6,51.8,94,29.98,5.0,Calm,Calm,-,N/A,,Clear,0,2013-04-29 04:55:00